Flag for Niger Weather past 2 weeks in Niamey, Niger

Now
102 °F

Thunderstorms. Scattered clouds.


Feels Like: 101 °F
Forecast: 83 / 101 °F
Wind: 5 mph from Southwest

Location: Niamey-Aero

Current Time: Jul 4, 2015 at 6:20:54 PM

Latest Report: Jul 4, 2015 at 6:00 PM


Visibility: N/A

Pressure: 29.80 "Hg

Humidity: 21%

Dew point: 55 °F

Location of NiameyLocation

Historic Weather in Niamey — Graph

°F

Niamey temperature yesterday

Maximum temperature yesterday: 102 °F (at 4:00 PM)
Minimum temperature yesterday: 82 °F (at 6:00 AM)
Average temperature yesterday: 92 °F

Past Weeks' High & Low Weather Summary

 TemperatureHumidityPressure
High108 °F (Jun 19, 5:00 PM)100% (Jun 24, 4:00 AM)30.07 "Hg (Jun 24, 4:00 AM)
Low70 °F (Jun 24, 4:00 AM)14% (Jun 21, 6:00 PM)29.74 "Hg (Jun 19, 6:00 PM)
Average92 °F43%29.89 "Hg
* Reported Jun 19 5:00 PM — Jul 4 5:00 PM, Niamey, Weather by CustomWeather, © 2015

Note: Actual official high and low records may vary slightly from our data, if they occured in-between our weather recording intervals... More about our weather records

Advertising

Niamey weather history for previous 24 hours

 ConditionsComfort  
Time TempWeatherWind HumidityBarometerVisibility
5:00 PM
Sat, Jul 4
102 °FScattered clouds.5 mph21%29.80 "HgN/A
4:00 PM104 °FScattered clouds.2 mph21%29.83 "HgN/A
3:00 PM102 °FPassing clouds.7 mph23%29.86 "HgN/A
2:00 PM99 °FPassing clouds.7 mph29%29.89 "HgN/A
1:00 PM97 °FPassing clouds.6 mph30%29.89 "HgN/A
12:00 PM95 °FPassing clouds.13 mph34%29.92 "HgN/A
11:00 AM91 °FSunny.14 mph46%29.92 "Hg10 mi
10:00 AM88 °FSunny.14 mph55%29.95 "Hg10 mi
9:00 AM86 °FSunny.12 mph59%29.95 "Hg10 mi
8:00 AM84 °FSunny.9 mph62%29.95 "Hg10 mi
7:00 AM82 °FPassing clouds.6 mph66%29.92 "HgN/A
6:00 AM82 °FClear.9 mph66%29.89 "Hg10 mi
5:00 AM84 °FClear.8 mph62%29.89 "Hg10 mi
4:00 AM84 °FClear.7 mph58%29.89 "Hg10 mi
3:00 AM86 °FClear.6 mph55%29.92 "Hg10 mi
2:00 AM88 °FClear.8 mph52%29.92 "Hg10 mi
1:00 AM88 °FClear.7 mph49%29.95 "Hg10 mi
12:00 AM90 °FClear.7 mph41%29.95 "Hg10 mi
11:00 PM
Fri, Jul 3
90 °FClear.7 mph41%29.95 "Hg10 mi
10:00 PM91 °FClear.10 mph36%29.92 "Hg10 mi
9:00 PM93 °FClear.9 mph34%29.89 "Hg10 mi
8:00 PM95 °FClear.10 mph28%29.83 "Hg10 mi
7:00 PM97 °FSunny.13 mph27%29.83 "Hg10 mi
6:00 PM100 °FSunny.10 mph22%29.80 "Hg10 mi
Weather by CustomWeather, © 2015

See weather overviewHow to use our weather pages